| Date | Time | Temp. (oF) | Dew Point (oF) | Rel. Hum. (%) | Press. (in.) | Wind Dir. | Wind Speed (mph) | Hourly Rainfall (in.) |
|
|---|---|---|---|---|---|---|---|---|---|
| 1 | 10/01 | 00:00 | 57 | 55 | 96 | 30.11 | NE | 6 | 0.00 |
| 2 | 09/30 | 23:00 | 57 | 55 | 96 | 30.13 | ENE | 2 | 0.00 |
| 3 | 09/30 | 22:00 | 57 | 55 | 95 | 30.12 | NE | 9 | 0.00 |
| 4 | 09/30 | 21:00 | 58 | 56 | 95 | 30.11 | ENE | 13 | 0.00 |
| 5 | 09/30 | 20:00 | 58 | 56 | 94 | 30.13 | NE | 5 | 0.00 |
| 6 | 09/30 | 19:00 | 58 | 56 | 94 | 30.12 | ENE | 10 | 0.00 |
| 7 | 09/30 | 18:00 | 59 | 57 | 94 | 30.11 | ENE | 4 | 0.00 |
| 8 | 09/30 | 17:00 | 59 | 57 | 95 | 30.09 | NE | 7 | 0.00 |
| 9 | 09/30 | 16:00 | 59 | 57 | 95 | 30.10 | NE | 0 | 0.00 |
| 10 | 09/30 | 15:00 | 58 | 56 | 95 | 30.12 | NE | 10 | 0.00 |
| 11 | 09/30 | 14:00 | 57 | 55 | 96 | 30.13 | NE | 5 | 0.00 |
| 12 | 09/30 | 13:00 | 56 | 54 | 96 | 30.15 | NE | 6 | 0.00 |
| 13 | 09/30 | 12:00 | 56 | 55 | 98 | 30.15 | ENE | 12 | 0.00 |
| 14 | 09/30 | 11:00 | 55 | 54 | 98 | 30.16 | NE | 4 | 0.00 |
| 15 | 09/30 | 10:00 | 54 | 54 | 100 | 30.17 | NE | 5 | 0.00 |
| 16 | 09/30 | 09:00 | 54 | 54 | 100 | 30.16 | ENE | 3 | 0.01 |
| 17 | 09/30 | 08:00 | 53 | 53 | 100 | 30.15 | ENE | 8 | 0.65 |
| 18 | 09/30 | 07:00 | 53 | 53 | 100 | 30.15 | ENE | 10 | 0.00 |
| 19 | 09/30 | 06:00 | 53 | 53 | 100 | 30.15 | ENE | 3 | 0.01 |
| 20 | 09/30 | 05:00 | 53 | 53 | 100 | 30.14 | NE | 5 | 0.01 |
| 21 | 09/30 | 04:00 | 54 | 54 | 100 | 30.13 | N | 6 | 0.00 |
| 22 | 09/30 | 03:00 | 55 | 54 | 100 | 30.13 | NE | 11 | 0.01 |
| 23 | 09/30 | 02:00 | 55 | 54 | 100 | 30.14 | NNE | 8 | 0.00 |
| 24 | 09/30 | 01:00 | 56 | 55 | 100 | 30.16 | NE | 7 | 0.01 |